Tracking 31027 objects as of 19-Jul-2025
HD Live streaming from Space Station
objects crossing your sky now

STARLINK-1928

Track STARLINK-1928 now!
10-day predictions
STARLINK-1928 is classified as:


NORAD ID: 46758
Int'l Code: 2020-074V
Perigee: 553.2 km
Apogee: 555.6 km
Inclination: 53.1 °
Period: 95.6 minutes
Semi major axis: 6925 km
RCS: Unknown
Launch date: October 24, 2020
Source: United States (US)
Launch site: AIR FORCE EASTERN TEST RANGE (AFETR)
Your satellite tracking list
Your tracking list is empty




NASA's NSSDC Master Catalog

Two Line Element Set (TLE):
1 46758U 20074V   25199.52064490  .00002131  00000-0  16198-3 0  9994
2 46758  53.0562 297.8394 0001759 141.4540 218.6575 15.06378902261314
Source of the keplerian elements: AFSPC